Regional Weather Roundup
Issued by NWS Upton, NY

Current Version | Previous Version | Text Only | Print | Product List | Glossary Off
Versions: 1 2 3 4 5 6 7 8 9 10 11 12 13 14 15 16 17 18 19 20 21 22 23 24 25 26 27 28 29 30 31 32 33 34 35 36 37 38 39 40 41 42 43 44 45 46 47 48 49 50

000
ASUS41 KOKX 200505
RWROKX
REGIONAL WEATHER ROUNDUP
NATIONAL WEATHER SERVICE NEW YORK NY
100 AM EDT SAT SEP 20 2014

NOTE: "FAIR" INDICATES FEW OR NO CLOUDS BELOW 12,000 FEET WITH NO
SIGNIFICANT WEATHER AND/OR OBSTRUCTIONS TO VISIBILITY.

NYZ071-072-176-178-NJZ106-104-200600-
NEW YORK CITY METRO AREA


CITY           SKY/WX    TMP DP  RH WIND       PRES   REMARKS
CENTRAL PARK   CLEAR     60  47  61 VRB5      30.36F
LAGUARDIA APRT PTCLDY    60  48  64 SE7       30.34F
KENNEDY INTL   PTCLDY    60  49  66 SE7       30.35F
NEWARK/LIBERTY PTCLDY    62  51  67 SE6       30.34F
BRNX BOT. GARD   N/A     57  48  72 E1        30.35S
TETERBORO      CLEAR     60  47  61 SE6       30.33F
$$

NYZ177-179-078>081-200600-
LONG ISLAND NEW YORK

CITY           SKY/WX    TMP DP  RH WIND       PRES   REMARKS
FARMINGDALE    PTCLDY    54  46  74 E5        30.35F
ISLIP          CLOUDY    53  46  77 CALM      30.34F
SHIRLEY        CLOUDY    51  46  83 CALM      30.36F
WESTHAMPTON    CLOUDY    60  48  64 SE6       30.37F
MONTAUK POINT    N/A     56  46  69 VRB5      30.39F
$$

NYZ052-065-067-200600-
HUDSON VALLEY

CITY           SKY/WX    TMP DP  RH WIND       PRES   REMARKS
WHITE PLAINS   PTCLDY    51  45  79 E3        30.34F
NEWBURGH       CLEAR     54  48  82 SE6       30.34F
MONTGOMERY     CLOUDY    46  44  93 CALM      30.33F
POUGHKEEPSIE   CLEAR     54  45  71 VRB3      30.33F
ALBANY         PTCLDY    51  41  68 S12G20    30.31S
$$

NJZ001-105-106-008-010-013-015-019>022-104-200600-
NEW JERSEY

CITY           SKY/WX    TMP DP  RH WIND       PRES   REMARKS
NEWARK/LIBERTY PTCLDY    62  51  67 SE6       30.34F
TETERBORO      CLEAR     60  47  61 SE6       30.33F
CALDWELL       CLEAR     56  47  71 CALM      30.34F
MORRISTOWN     MOCLDY    52  48  87 CALM      30.34S
SOMERVILLE     PTCLDY    48  46  93 CALM      30.32F
LINDEN         FAIR      65  55  68 SE3       30.35F
SUSSEX         CLEAR     49  46  90 CALM      30.33F
ANDOVER          N/A     53  49  86 SW3       30.32F
TRENTON        CLEAR     54  50  86 E5        30.32F
MILLVILLE      CLEAR     55  54  96 E3        30.31F
ATLANTIC CITY  PTCLDY    63  57  81 E8        30.32F
WRIGHTSTOWN    CLEAR     53  52  96 E3        30.30F
TOMS RIVER     PTCLDY    59  54  82 CALM      30.33F
BELMAR         PTCLDY    61  52  72 SE10      30.33F
$$

PAZ047>061-062-071-200600-
EASTERN PENNSYLVANIA

CITY           SKY/WX    TMP DP  RH WIND       PRES   REMARKS
PHILADELPHIA   MOCLDY    59  54  83 E8        30.32F
ALLENTOWN      CLOUDY    57  50  77 VRB3      30.32F
SCRANTON       CLOUDY    57  49  74 VRB3      30.29S
$$

CTZ002-004>006-009-010-012-RIZ004-006-007-MAZ004-011-015-200600-
SOUTHERN NEW ENGLAND
 IN CT

CITY           SKY/WX    TMP DP  RH WIND       PRES   REMARKS
BRADLEY INTL   CLEAR     43  38  82 CALM      30.37F
HARTFORD       CLEAR     49  41  74 SE8       30.38F
DANBURY        CLEAR     47  43  86 SE6       30.36F
WTRBRY/OXFORD  PTCLDY    46  39  76 SE6       30.37F
BRIDGEPORT     PTCLDY    60  49  66 SE9       30.36F
MERIDEN        CLEAR     44  41  89 CALM      30.38F
NEW HAVEN      CLOUDY    61  48  62 SE12      30.37F
CHESTER        FAIR      45  43  93 CALM      30.38F
GROTON         CLEAR     54  46  74 SE9       30.38F
WILLIMANTIC    CLEAR     41  38  89 CALM      30.39F

 IN RI

CITY           SKY/WX    TMP DP  RH WIND       PRES   REMARKS
PROVIDENCE     CLEAR     48  40  73 CALM      30.39F
BLOCK ISLAND   PTCLDY    54  43  66 SE9       30.38F
WESTERLY       CLEAR     43  41  93 CALM      30.39F

 IN MA

CITY           SKY/WX    TMP DP  RH WIND       PRES   REMARKS
BOSTON         CLEAR     49  38  65 S9        30.39F
WORCESTER      CLEAR     42  35  76 S6        30.37F
WESTFIELD      CLEAR     40  37  89 CALM      30.38R
PROVINCETOWN   CLEAR     46  37  71 SE6       30.41F
NANTUCKET      PTCLDY    50  40  68 E7        30.40F
$$

ANZ330-335-338-340-345-350-353-355-200600-
COASTAL MARINE OBSERVATIONS


STATION/POSITION TIME  SKY/WX   TEMP    WIND        PRES    VSBY  WAVE
                                AIR SEA DIR/SP/G                  HT/PER
                 (UTC)          (F)     (DEG/KT/KT) (MB)    (MI)  (FT/S)
NY HARB ENTRANCE 0500            63 70  120/ 14/ 16 1027.4          3/ 6
4S FIRE IS       0500               69                N/A           4/ 6
20S FIRE ISLAND  0500            63 67  130/ 12/ 14 1028.0          4/ 6
23SW MTP         0500                                 N/A           4/ 7
HUDSON CANYON    0500            65 72  100/ 14/ 16 1027.0          5/ 6
EXECUTION ROCKS  0500            61 70  140/ 10/ 14   N/A
WESTERN LI SOUND 0500            60     130/  8/ 10   N/A           1
CENTRAL LI SOUND 0400            60 70  120/ 14/ 17   N/A           1/ 4
EASTERN LI SOUND 0400            59 67  140/ 14/ 19   N/A
ROBBINS REEF     0400                   130/ 15/ 18 1025.9
$$


>>>>>>>>>>>>>>>>>>>>>>>>>>>> KEY <<<<<<<<<<<<<<<<<<<<<<<<<<<
>                                                          <
>     SKY/WX - SKY CONDITION/PRESENT WEATHER               <
>     TMP    - TEMPERATURE IN FAHRENHEIT                   <
>     DP     - DEWPOINT IN FAHRENHEIT                      <
>     RH     - RELATIVE HUMIDITY IN PERCENT                <
>     WIND   - DIRECTION AND SPEED IN MPH                  <
>     PRES   - MEAN SEA LEVEL PRESSURE IN INCHES OF HG     <
>     WCI    - WIND CHILL INDEX                            <
>     VSB    - VISIBILITY IN MILES                         <
>     HX     - HEAT INDEX                                  <
>     TC     - TEMPERATURE IN CELSIUS                      <
>     VRB    - VARIABLE WIND DIRECTION                     <
>                                                          <
>>>>>>>>>>>>>>>>>>>>>>>>>>>> KEY <<<<<<<<<<<<<<<<<<<<<<<<<<<





USA.gov is the U.S. government's official web portal to all federal, state and local government web resources and services.